• In Hungary
  • List of Countries
  • For 7 days
  • Water Temperature
  • Satellite Maps
  • Weather Map
  • News
  • Weather Widgets
  • user-avatar
    Login

    Hourly Weather Dagni

    Today, 23 September, Sunday

    Time Temperature Precipitation Wind Pressure Humidity
    00:00 +16°C° 0 mm 1 mps 693 mmHg 79%
    01:00 +16°C° 0.1 mm 1 mps 693 mmHg 79%
    02:00 +16°C° 0.1 mm 1 mps 692 mmHg 79%
    03:00 +16°C° 0 mm 1 mps 692 mmHg 79%
    04:00 +16°C° 0.1 mm 1 mps 692 mmHg 80%
    05:00 +16°C° 0.1 mm 1 mps 692 mmHg 80%
    06:00 +16°C° 0.1 mm 1 mps 693 mmHg 81%
    07:00 +18°C° 0.3 mm 1 mps 693 mmHg 76%
    08:00 +18°C° 0.3 mm 2 mps 693 mmHg 72%
    09:00 +20°C° 0.3 mm 2 mps 693 mmHg 67%
    10:00 +20°C° 0.4 mm 2 mps 693 mmHg 65%
    11:00 +21°C° 0.4 mm 3 mps 693 mmHg 63%
    12:00 +22°C° 0.4 mm 3 mps 693 mmHg 60%
    13:00 +22°C° 0.7 mm 3 mps 693 mmHg 62%
    14:00 +21°C° 0.7 mm 3 mps 693 mmHg 64%
    15:00 +21°C° 0.7 mm 3 mps 692 mmHg 65%
    16:00 +20°C° 0.5 mm 3 mps 692 mmHg 72%
    17:00 +19°C° 0.5 mm 2 mps 692 mmHg 79%
    18:00 +17°C° 0.5 mm 2 mps 692 mmHg 85%
    19:00 +17°C° 0 mm 2 mps 692 mmHg 83%
    20:00 +17°C° 0 mm 2 mps 692 mmHg 82%
    21:00 +17°C° 0 mm 2 mps 692 mmHg 80%
    22:00 +17°C° 0 mm 2 mps 692 mmHg 78%
    23:00 +16°C° 0 mm 2 mps 692 mmHg 76%

    Tomorrow, 24 September, Monday

    Time Temperature Precipitation Wind Pressure Humidity
    00:00 +16°C° 0 mm 2 mps 692 mmHg 75%
    01:00 +16°C° 0 mm 2 mps 692 mmHg 73%
    02:00 +16°C° 0 mm 2 mps 692 mmHg 71%
    03:00 +16°C° 0 mm 2 mps 692 mmHg 69%
    04:00 +16°C° 0 mm 2 mps 692 mmHg 68%
    05:00 +16°C° 0 mm 2 mps 692 mmHg 67%
    06:00 +16°C° 0 mm 2 mps 692 mmHg 65%
    07:00 +18°C° 0 mm 2 mps 693 mmHg 59%
    08:00 +20°C° 0 mm 2 mps 694 mmHg 54%
    09:00 +23°C° 0 mm 2 mps 694 mmHg 48%
    10:00 +23°C° 0 mm 2 mps 694 mmHg 47%
    11:00 +24°C° 0 mm 3 mps 694 mmHg 46%
    12:00 +25°C° 0 mm 3 mps 695 mmHg 45%
    13:00 +24°C° 0 mm 3 mps 694 mmHg 49%
    14:00 +24°C° 0 mm 3 mps 694 mmHg 52%
    15:00 +23°C° 0 mm 2 mps 694 mmHg 56%
    16:00 +21°C° 0 mm 2 mps 694 mmHg 61%
    17:00 +19°C° 0 mm 2 mps 694 mmHg 67%
    18:00 +19°C° 0 mm 1 mps 693 mmHg 73%
    19:00 +19°C° 0 mm 1 mps 693 mmHg 73%
    20:00 +17°C° 0 mm 2 mps 693 mmHg 72%
    21:00 +17°C° 0 mm 2 mps 693 mmHg 72%
    22:00 +17°C° 0 mm 2 mps 693 mmHg 71%
    23:00 +17°C° 0 mm 2 mps 693 mmHg 71%

    Day after tomorrow, 25 September, Tuesday

    Time Temperature Precipitation Wind Pressure Humidity
    00:00 +17°C° 0 mm 2 mps 692 mmHg 70%
    01:00 +16°C° 0 mm 2 mps 692 mmHg 69%
    02:00 +16°C° 0 mm 3 mps 692 mmHg 68%
    03:00 +16°C° 0 mm 3 mps 691 mmHg 67%
    04:00 +16°C° 0 mm 3 mps 691 mmHg 65%
    05:00 +16°C° 0 mm 3 mps 691 mmHg 63%
    06:00 +16°C° 0 mm 3 mps 691 mmHg 62%
    07:00 +19°C° 0 mm 3 mps 691 mmHg 54%
    08:00 +22°C° 0 mm 3 mps 691 mmHg 47%
    09:00 +26°C° 0 mm 2 mps 691 mmHg 40%
    10:00 +27°C° 0 mm 3 mps 691 mmHg 39%
    11:00 +27°C° 0 mm 3 mps 691 mmHg 38%
    12:00 +28°C° 0 mm 3 mps 690 mmHg 38%
    13:00 +28°C° 0 mm 3 mps 690 mmHg 40%
    14:00 +28°C° 0 mm 3 mps 690 mmHg 42%
    15:00 +28°C° 0 mm 3 mps 690 mmHg 43%
    16:00 +25°C° 0 mm 2 mps 689 mmHg 53%
    17:00 +23°C° 0 mm 2 mps 689 mmHg 62%
    18:00 +21°C° 0 mm 1 mps 689 mmHg 71%
    19:00 +21°C° 0 mm 1 mps 689 mmHg 70%
    20:00 +20°C° 0 mm 1 mps 690 mmHg 69%
    21:00 +19°C° 0 mm 2 mps 690 mmHg 68%
    22:00 +19°C° 0 mm 2 mps 690 mmHg 68%
    23:00 +19°C° 0 mm 2 mps 690 mmHg 67%

    26 September, Wednesday

    Time Temperature Precipitation Wind Pressure Humidity
    00:00 +20°C° 0 mm 1 mps 690 mmHg 67%
    01:00 +18°C° 0 mm 2 mps 690 mmHg 68%
    02:00 +18°C° 0 mm 2 mps 690 mmHg 70%
    03:00 +17°C° 0 mm 2 mps 690 mmHg 71%
    04:00 +17°C° 0 mm 2 mps 690 mmHg 76%
    05:00 +16°C° 0 mm 3 mps 691 mmHg 81%
    06:00 +16°C° 0 mm 3 mps 691 mmHg 86%
    07:00 +17°C° 0 mm 4 mps 692 mmHg 80%
    08:00 +18°C° 0 mm 4 mps 692 mmHg 74%
    09:00 +20°C° 0 mm 5 mps 693 mmHg 68%
    10:00 +19°C° 0 mm 5 mps 693 mmHg 68%
    11:00 +19°C° 0 mm 5 mps 693 mmHg 68%
    12:00 +19°C° 0 mm 5 mps 693 mmHg 68%
    13:00 +17°C° 0 mm 5 mps 693 mmHg 70%
    14:00 +17°C° 0 mm 5 mps 693 mmHg 73%
    15:00 +16°C° 0 mm 5 mps 693 mmHg 75%
    16:00 +15°C° 0 mm 5 mps 693 mmHg 78%
    17:00 +14°C° 0 mm 4 mps 694 mmHg 82%
    18:00 +13°C° 0 mm 4 mps 694 mmHg 86%
    19:00 +13°C° 0 mm 4 mps 694 mmHg 86%
    20:00 +13°C° 0 mm 3 mps 694 mmHg 86%
    21:00 +12°C° 0 mm 3 mps 695 mmHg 86%
    22:00 +12°C° 0 mm 3 mps 695 mmHg 86%
    23:00 +13°C° 0 mm 2 mps 694 mmHg 87%

    27 September, Thursday

    Time Temperature Precipitation Wind Pressure Humidity
    00:00 +12°C° 0 mm 2 mps 694 mmHg 87%
    01:00 +12°C° 0 mm 2 mps 694 mmHg 88%
    02:00 +12°C° 0 mm 2 mps 694 mmHg 88%
    03:00 +12°C° 0 mm 2 mps 694 mmHg 88%
    04:00 +12°C° 0 mm 2 mps 694 mmHg 88%
    05:00 +12°C° 0 mm 2 mps 695 mmHg 88%
    06:00 +11°C° 0 mm 3 mps 695 mmHg 88%
    07:00 +12°C° 0 mm 3 mps 695 mmHg 80%
    08:00 +14°C° 0 mm 3 mps 696 mmHg 73%
    09:00 +17°C° 0 mm 4 mps 696 mmHg 65%
    10:00 +17°C° 0 mm 4 mps 696 mmHg 64%
    11:00 +18°C° 0 mm 4 mps 696 mmHg 62%
    12:00 +18°C° 0 mm 4 mps 696 mmHg 60%
    13:00 +18°C° 0 mm 4 mps 696 mmHg 62%
    14:00 +18°C° 0 mm 4 mps 696 mmHg 63%
    15:00 +18°C° 0 mm 4 mps 696 mmHg 64%
    16:00 +16°C° 0 mm 3 mps 695 mmHg 71%
    17:00 +15°C° 0 mm 2 mps 695 mmHg 77%
    18:00 +13°C° 0 mm 1 mps 695 mmHg 84%
    19:00 +13°C° 0 mm 1 mps 695 mmHg 84%
    20:00 +13°C° 0 mm 1 mps 696 mmHg 83%
    21:00 +13°C° 0 mm 1 mps 696 mmHg 83%
    22:00 +13°C° 0 mm 1 mps 696 mmHg 82%
    23:00 +13°C° 0 mm 1 mps 695 mmHg 81%

    28 September, Friday

    Time Temperature Precipitation Wind Pressure Humidity
    00:00 +13°C° 0 mm 1 mps 695 mmHg 80%
    01:00 +13°C° 0 mm 1 mps 695 mmHg 78%
    02:00 +13°C° 0 mm 1 mps 695 mmHg 77%
    03:00 +13°C° 0 mm 1 mps 695 mmHg 75%
    04:00 +13°C° 0 mm 1 mps 695 mmHg 74%
    05:00 +13°C° 0 mm 1 mps 695 mmHg 73%
    06:00 +13°C° 0 mm 1 mps 695 mmHg 72%
    07:00 +15°C° 0 mm 2 mps 695 mmHg 66%
    08:00 +17°C° 0 mm 2 mps 695 mmHg 60%
    09:00 +20°C° 0 mm 2 mps 695 mmHg 55%
    10:00 +21°C° 0 mm 2 mps 695 mmHg 54%
    11:00 +22°C° 0 mm 3 mps 695 mmHg 53%
    12:00 +24°C° 0 mm 3 mps 695 mmHg 52%
    13:00 +24°C° 0 mm 3 mps 695 mmHg 54%
    14:00 +22°C° 0 mm 3 mps 695 mmHg 57%
    15:00 +22°C° 0 mm 3 mps 694 mmHg 60%
    16:00 +20°C° 0 mm 3 mps 694 mmHg 69%
    17:00 +18°C° 0 mm 2 mps 694 mmHg 77%
    18:00 +17°C° 0 mm 2 mps 694 mmHg 86%
    19:00 +16°C° 0 mm 2 mps 694 mmHg 84%
    20:00 +16°C° 0 mm 2 mps 694 mmHg 82%
    21:00 +16°C° 0 mm 2 mps 694 mmHg 80%
    22:00 +16°C° 0 mm 2 mps 694 mmHg 77%
    23:00 +16°C° 0 mm 2 mps 693 mmHg 74%
    Show more